Regional Weather Roundup
Issued by NWS

Home | Current Version | Previous Version | Graphics & Text | Print | Product List | Glossary On
Versions: 1 2 3 4 5 6 7 8 9 10 11 12 13 14 15 16 17 18 19 20 21 22 23 24 25 26 27 28 29 30 31 32 33 34 35 36 37 38 39 40 41 42 43 44 45 46 47 48 49 50
000
ASUS43 KMKX 130011
RWRWI

WISCONSIN REGIONAL WEATHER ROUNDUP
NATIONAL WEATHER SERVICE MILWAUKEE/SULLIVAN WI
700 PM CDT SAT JUL 12 2014

NOTE: "FAIR" INDICATES FEW OR NO CLOUDS BELOW 12,000 FEET WITH NO
SIGNIFICANT WEATHER AND/OR OBSTRUCTIONS TO VISIBILITY.

WIZ001-002-006>008-014>016-023>028-130100-
NORTHWEST WISCONSIN

CITY           SKY/WX    TMP DP  RH WIND       PRES   REMARKS
SUPERIOR ARPT  PTSUNNY   74  63  69 W7        29.87S
6HR MIN TEMP:  72; 6HR MAX TEMP:  74;

ASHLAND        CLOUDY    71  63  75 CALM      29.88F
6HR MIN TEMP:  68; 6HR MAX TEMP:  74;

HAYWARD        CLOUDY    72  65  78 SW8       29.90F
6HR MIN TEMP:  71; 6HR MAX TEMP:  79; 6HR PCP: TRACE;

SIREN          CLOUDY    72  61  68 SW8       29.91F
6HR MIN TEMP:  70; 6HR MAX TEMP:  76;

RICE LAKE      CLOUDY    68  66  92 CALM      29.94F
6HR MIN TEMP:  65; 6HR MAX TEMP:  76;

LADYSMITH      LGT RAIN  66  65  94 S5        29.95S
6HR MIN TEMP:  66; 6HR MAX TEMP:  74; 6HR PCP:  0.47;

EAU CLAIRE     LGT RAIN  67  65  93 SE8       29.92F
6HR MIN TEMP:  65; 6HR MAX TEMP:  75; 6HR PCP:  0.81;

MENOMONIE      CLOUDY    68  68  99 CALM      29.94R
6HR MIN TEMP:  67; 6HR MAX TEMP:  76; 6HR PCP:  0.67;

NEW RICHMOND   CLOUDY    71  69  93 SW3       29.93F
6HR MIN TEMP:  65; 6HR MAX TEMP:  76; 6HR PCP:  0.88;

OSCEOLA        PTSUNNY   74  61  63 NW3       29.95F
6HR MIN TEMP:  71; 6HR MAX TEMP:  78;

$$

WIZ003>005-009-010-017-018-130100-
NORTH CENTRAL WISCONSIN

CITY           SKY/WX    TMP DP  RH WIND       PRES   REMARKS
WOODRUFF       LGT RAIN  65  61  86 S9        29.93F
6HR MIN TEMP:  65; 6HR MAX TEMP:  80;

RHINELANDER    LGT RAIN  63  62  97 SW7       29.96F
6HR MIN TEMP:  62; 6HR MAX TEMP:  77; 6HR PCP:  0.87;

EAGLE RIVER    LGT RAIN  64  61  91 SW9       29.92F
6HR MIN TEMP:  63; 6HR MAX TEMP:  77; 6HR PCP:  0.01;

LAND O LAKES   DRIZZLE   67  59  77 SW7       29.93S
6HR MIN TEMP:  67; 6HR MAX TEMP:  78;

PHILLIPS       LGT RAIN  64  63  96 S8        29.94R
6HR MIN TEMP:  64; 6HR MAX TEMP:  75; 6HR PCP:  0.40;

TOMAHAWK       LGT RAIN  63  61  94 CALM      29.95F
6HR MIN TEMP:  62; 6HR MAX TEMP:  76; 6HR PCP:  0.77;

MEDFORD        LGT RAIN  64  62  96 SW5       29.96F
6HR MIN TEMP:  63; 6HR MAX TEMP:  74; 6HR PCP:  0.67;

MERRILL        LGT RAIN  64  64  97 CALM      29.98S
6HR MIN TEMP:  64; 6HR MAX TEMP:  77; 6HR PCP:  0.16;

$$

WIZ029-030-035-036-043>047-130100-
CENTRAL WISCONSIN

CITY           SKY/WX    TMP DP  RH WIND       PRES   REMARKS
WAUSAU         CLOUDY    68  65  90 NW7       29.95S
6HR MIN TEMP:  68; 6HR MAX TEMP:  77; 6HR PCP:  0.10;

MOSINEE        RAIN      66  66 100 NW9       29.98R
MARSHFIELD     LGT RAIN  66  64  93 NW8       29.97S
6HR MIN TEMP:  66; 6HR MAX TEMP:  75; 6HR PCP:  0.04;

STEVENS POINT  LGT RAIN  64  63  95 NW6       29.96S
6HR MIN TEMP:  64; 6HR MAX TEMP:  74; 6HR PCP:  0.12;

WAUPACA        LGT RAIN  73  67  83 NW5       29.91F
6HR MIN TEMP:  73; 6HR MAX TEMP:  80;

WAUTOMA        RAIN      73  72  94 N10       29.91S FOG
6HR MIN TEMP:  75; 6HR MAX TEMP:  78; 6HR PCP: TRACE;

WISC RAPIDS    LGT RAIN  66  64  93 NW10      29.97R
6HR MIN TEMP:  65; 6HR MAX TEMP:  78; 6HR PCP:  0.59;

CAMP DOUGLAS   NOT AVBL
$$

WIZ011>013-019>022-031-037>040-048>050-130100-
NORTHEAST WISCONSIN

CITY           SKY/WX    TMP DP  RH WIND       PRES   REMARKS
ANTIGO         LGT RAIN  61  61  99 CALM      29.98F
6HR MIN TEMP:  60; 6HR MAX TEMP:  75; 6HR PCP:  0.32;

STURGEON BAY   CLOUDY    68  63  83 S5        29.89F
6HR MIN TEMP:  68; 6HR MAX TEMP:  75;

GREEN BAY      LGT RAIN  76  71  85 W5        29.88F
6HR MIN TEMP:  76; 6HR MAX TEMP:  81; 6HR PCP: TRACE;

MANITOWOC      CLOUDY    65  62  90 SE3       29.89F
6HR MIN TEMP:  63; 6HR MAX TEMP:  73; 6HR PCP: TRACE;

APPLETON       NOT AVBL
CLINTONVILLE   DRIZZLE   73  66  78 NW17G23   29.90S
OSHKOSH        LGT RAIN  74  70  87 CALM      29.89F
6HR MIN TEMP:  74; 6HR MAX TEMP:  78; 6HR PCP: TRACE;

$$

WIZ032>034-041-042-053>061-130100-
SOUTHWEST WISCONSIN

CITY           SKY/WX    TMP DP  RH WIND       PRES   REMARKS
LA CROSSE      LGT RAIN  68  66  93 CALM      29.93F
6HR MIN TEMP:  68; 6HR MAX TEMP:  76; 6HR PCP:  2.99;

SPARTA         CLOUDY    66  65  94 CALM      29.96S
6HR MIN TEMP:  66; 6HR MAX TEMP:  74; 6HR PCP:  0.74;

VIROQUA        CLOUDY    66  66 100 N9        29.95S
6HR MIN TEMP:  66; 6HR MAX TEMP:  75; 6HR PCP:  0.77;

BOSCOBEL       LGT RAIN  72  68  87 N7        29.90F
6HR MIN TEMP:  72; 6HR MAX TEMP:  80; 6HR PCP:  0.08;

PRAIRIE DU CHI LGT RAIN  69  66  89 NW10G16   29.92S
6HR MIN TEMP:  69; 6HR MAX TEMP:  79; 6HR PCP:  0.17;

PLATTEVILLE    CLOUDY    76  73  90 S3        29.92S
6HR MIN TEMP:  76; 6HR MAX TEMP:  79; 6HR PCP:  0.08;

$$

WIZ056-057-062-063-064-067-068-130100-
SOUTH CENTRAL WISCONSIN

CITY           SKY/WX    TMP DP  RH WIND       PRES   REMARKS
BARABOO/DELLS  RAIN      73  70  91 CALM      29.90F
6HR MIN TEMP:  73; 6HR MAX TEMP:  76; 6HR PCP:  0.07;

LONE ROCK      CLOUDY    79  73  82 CALM      29.89F HX  82
6HR MIN TEMP:  78; 6HR MAX TEMP:  81; 6HR PCP:  0.06;

WATERTOWN      CLOUDY    74  73  98 SE3       29.88F FOG
6HR MIN TEMP:  74; 6HR MAX TEMP:  76; 6HR PCP:  0.01;

MADISON        CLOUDY    77  72  84 S7        29.90F
6HR MIN TEMP:  77; 6HR MAX TEMP:  79; 6HR PCP:  0.02;

MIDDLETON      MOCLDY    77  75  93 SW5       29.90S
6HR MIN TEMP:  77; 6HR MAX TEMP:  79; 6HR PCP:  0.01;

MONROE         CLOUDY    77  72  83 SE3       29.90F
JANESVILLE     CLOUDY    79  72  78 CALM      29.90F HX  82
$$

WIZ051-052-058>065-066-070>072-130100-
SOUTHEAST WISCONSIN

CITY           SKY/WX    TMP DP  RH WIND       PRES   REMARKS
MILWAUKEE      LGT RAIN  75  71  87 S6        29.91F
6HR MIN TEMP:  75; 6HR MAX TEMP:  77; 6HR PCP:  0.01;

WAUKESHA       CLOUDY    72  70  94 SW7       29.93F FOG
MILWAUKEE/TIMM DRIZZLE   73  70  88 CALM      29.91F FOG
RACINE         CLOUDY    75  72  90 SW3       29.93F
6HR MIN TEMP:  74; 6HR MAX TEMP:  79; 6HR PCP:  0.06;

BURLINGTON     CLOUDY    73  72  96 CALM      29.92F FOG
6HR MIN TEMP:  72; 6HR MAX TEMP:  75; 6HR PCP:  0.01;

KENOSHA        CLOUDY    77  72  84 CALM      29.92F
6HR MIN TEMP:  74; 6HR MAX TEMP:  79; 6HR PCP: TRACE;

FOND DU LAC    CLOUDY    74  70  87 SW3       29.90F
6HR MIN TEMP:  73; 6HR MAX TEMP:  78; 6HR PCP:  0.01;

SHEBOYGAN      CLOUDY    74  70  87 SW5       29.89F
6HR MIN TEMP:  73; 6HR MAX TEMP:  78; 6HR PCP: TRACE;

WEST BEND      CLOUDY    72  68  88 CALM      29.90F HAZE
JUNEAU         RAIN      73  56  55 S3        29.90F
6HR MIN TEMP:  73; 6HR MAX TEMP:  75;

$$

LSZ147-162-130100-
LAKE SUPERIOR

STATION/POSITION TIME  TEMP    WIND        PRES    WAVE
                       AIR SEA DIR/SP/G            HT/PER
                 (UTC) (F)     (DEG/KT/KT) (MB)    (FT/S)
W MID LAKE BUOY  2350   47 39  240/  2/  2 1011.2F   0
PORT WING        2340   73     200/  4/  7 1011.5F
SAXON HARBOR     2300           CALM  / 18 1011.9F
$$

LMZ867-665-643>646-130100-
LAKE MICHIGAN

STATION/POSITION TIME  TEMP    WIND        PRES    WAVE
                       AIR SEA DIR/SP/G            HT/PER
                 (UTC) (F)     (DEG/KT/KT) (MB)    (FT/S)
N MID LAKE BUOY  2350   58 57  200/ 12/ 14 1011.3F   2/ 4
NORTHPORT PIER   2300   68     160/  4/  7 1011.9F
KEWAUNEE LAKESHO 2300   55     160/  6/  6 1013.2F
SHEBOYGAN LAKESH 0000   69     160/  7/  8 1012.0F
PORT WASHINGTON  2300   68     250/  2/  4 1013.9S
MILWAUKEE LAKESH 2300   76     270/  8/ 11   N/A
S MID LAKE BUOY  2350   63 61  160/  8/ 10 1014.2F   1/ 4
KENOSHA   LAKESH 0000   73      90/  5/  6   N/A
$$

TC  - TEMPERATURE IN CELSIUS
VSB - VISIBILITY IN STATUTE MILES
WCI - WIND CHILL INDEX
HX  - HEAT INDEX



USA.gov is the U.S. government's official web portal to all federal, state and local government web resources and services.